BEL2257 EBBR-EKCH

Flight info

Callsign BEL2257
Flight time 1h 15m
Altitude 30000
Route NIK L191 VICOT N873 SPY/N0440F310 DCT DOSUR P729 TUDLO
Aircraft B739/M-SDE2E3FGHIRWXY/LB1

Departure

Time 2026-05-04 09:19
Airport Brussels Airport (EBBR)

Arrival

Time 2026-05-04 10:34
Airport Copenhagen Kastrup Airport (EKCH)
Time Latitude Longitude Altitude Speed Heading
2026-05-04 08:21 50.90397 4.48535 116 ft 0 kts 155°
2026-05-04 09:07 50.90424 4.48515 117 ft 4 kts 155°
2026-05-04 09:08 50.90447 4.48499 118 ft 4 kts 153°
2026-05-04 09:08 50.90463 4.48475 116 ft 4 kts 101°
2026-05-04 09:08 50.90460 4.48436 116 ft 4 kts 67°
2026-05-04 09:08 50.90456 4.48422 118 ft 0 kts 65°
2026-05-04 09:14 50.90602 4.48656 119 ft 12 kts 60°
2026-05-04 09:14 50.90643 4.48793 118 ft 15 kts 66°
2026-05-04 09:14 50.90689 4.48953 116 ft 17 kts 65°
2026-05-04 09:14 50.90740 4.49130 121 ft 18 kts 65°
2026-05-04 09:15 50.90792 4.49310 119 ft 18 kts 65°
2026-05-04 09:15 50.90847 4.49499 120 ft 19 kts 65°
2026-05-04 09:15 50.90905 4.49703 119 ft 21 kts 65°
2026-05-04 09:15 50.91002 4.49884 118 ft 24 kts 31°
2026-05-04 09:17 50.91109 4.49788 116 ft 11 kts 245°
2026-05-04 09:18 50.91073 4.49659 117 ft 16 kts 246°
2026-05-04 09:18 50.91015 4.49455 119 ft 28 kts 246°
2026-05-04 09:18 50.90838 4.48847 116 ft 98 kts 245°
2026-05-04 09:18 50.90458 4.47530 123 ft 162 kts 245°
2026-05-04 09:19 50.89935 4.45711 375 ft 193 kts 245°
2026-05-04 09:19 50.89380 4.43726 991 ft 201 kts 248°
2026-05-04 09:19 50.89208 4.41591 1828 ft 202 kts 279°
2026-05-04 09:19 50.89903 4.39532 2108 ft 229 kts 320°
2026-05-04 09:20 50.91366 4.38435 2595 ft 237 kts 341°
2026-05-04 09:20 50.92920 4.37524 3084 ft 240 kts 338°
2026-05-04 09:20 50.94469 4.36483 3612 ft 242 kts 336°
2026-05-04 09:20 50.96005 4.35370 4145 ft 243 kts 334°
2026-05-04 09:21 50.97531 4.34208 4676 ft 244 kts 333°
2026-05-04 09:21 50.99056 4.33006 5174 ft 246 kts 333°
2026-05-04 09:21 51.00590 4.31769 5660 ft 248 kts 332°
2026-05-04 09:21 51.02133 4.30504 6149 ft 250 kts 332°
2026-05-04 09:22 51.03687 4.29215 6622 ft 254 kts 332°
2026-05-04 09:22 51.05284 4.27882 6875 ft 268 kts 331°
2026-05-04 09:22 51.06972 4.26463 7250 ft 279 kts 331°
2026-05-04 09:22 51.08693 4.25014 7928 ft 280 kts 331°
2026-05-04 09:23 51.10424 4.23552 8629 ft 282 kts 330°
2026-05-04 09:23 51.12165 4.22079 9280 ft 286 kts 330°
2026-05-04 09:23 51.13933 4.20581 9935 ft 289 kts 330°
2026-05-04 09:23 51.15728 4.19058 10365 ft 300 kts 330°
2026-05-04 09:25 51.29956 4.05347 13245 ft 370 kts 354°
2026-05-04 09:25 51.32533 4.05283 13899 ft 372 kts 359°
2026-05-04 09:26 51.35137 4.05306 14361 ft 377 kts 359°
2026-05-04 09:26 51.37776 4.05293 14867 ft 380 kts 358°
2026-05-04 09:26 51.40428 4.05254 15439 ft 381 kts 358°
2026-05-04 09:26 51.43082 4.05204 15991 ft 383 kts 358°
2026-05-04 09:27 51.45764 4.05169 16485 ft 387 kts
2026-05-04 09:27 51.48462 4.05685 16920 ft 394 kts 12°
2026-05-04 09:27 51.51095 4.07021 16932 ft 401 kts 22°
2026-05-04 09:27 51.53589 4.08930 17133 ft 394 kts 25°
2026-05-04 09:28 51.56071 4.10867 16994 ft 398 kts 24°
2026-05-04 09:28 51.58561 4.12769 17017 ft 393 kts 24°
2026-05-04 09:28 51.61032 4.14631 16980 ft 392 kts 24°
2026-05-04 09:28 51.63519 4.16490 17033 ft 398 kts 24°
2026-05-04 09:29 51.66034 4.18366 17572 ft 398 kts 24°
2026-05-04 09:29 51.68548 4.20242 18159 ft 399 kts 24°
2026-05-04 09:29 51.71092 4.22143 18521 ft 405 kts 24°
2026-05-04 09:29 51.73657 4.24064 18880 ft 410 kts 24°
2026-05-04 09:30 51.76255 4.26010 19297 ft 413 kts 23°
2026-05-04 09:30 51.78835 4.27940 19707 ft 416 kts 23°
2026-05-04 09:30 51.81511 4.29943 20066 ft 421 kts 23°
2026-05-04 09:30 51.84182 4.31945 20434 ft 425 kts 23°
2026-05-04 09:31 51.86839 4.33939 20838 ft 428 kts 23°
2026-05-04 09:31 51.89555 4.35981 21251 ft 431 kts 23°
2026-05-04 09:31 51.92286 4.38037 21630 ft 435 kts 23°
2026-05-04 09:31 51.95041 4.40114 21994 ft 439 kts 23°
2026-05-04 09:32 51.97824 4.42216 22369 ft 442 kts 23°
2026-05-04 09:32 52.00622 4.44331 22769 ft 445 kts 23°
2026-05-04 09:34 52.20705 4.59606 25121 ft 464 kts 22°
2026-05-04 09:34 52.23640 4.61849 25413 ft 467 kts 22°
2026-05-04 09:34 52.26582 4.64108 25750 ft 469 kts 22°
2026-05-04 09:34 52.29529 4.66382 26077 ft 470 kts 22°
2026-05-04 09:35 52.32496 4.68675 26353 ft 473 kts 22°
2026-05-04 09:35 52.35493 4.70996 26611 ft 477 kts 22°
2026-05-04 09:35 52.38503 4.73330 26880 ft 480 kts 22°
2026-05-04 09:35 52.41534 4.75683 27178 ft 482 kts 22°
2026-05-04 09:37 52.61042 4.97296 29668 ft 489 kts 46°
2026-05-04 09:37 52.63394 5.01457 29965 ft 491 kts 46°
2026-05-04 09:38 52.68057 5.09622 29981 ft 497 kts 46°
2026-05-04 09:38 52.72842 5.17937 29967 ft 497 kts 45°
2026-05-04 09:39 52.77598 5.26206 29979 ft 496 kts 45°
2026-05-04 09:39 52.82331 5.34463 30002 ft 494 kts 45°
2026-05-04 09:40 52.87047 5.42723 30005 ft 493 kts 45°
2026-05-04 09:40 52.91756 5.51001 29982 ft 493 kts 45°
2026-05-04 09:42 53.10539 5.84306 30016 ft 496 kts 45°
2026-05-04 09:43 53.15245 5.92724 30026 ft 497 kts 45°
2026-05-04 09:43 53.19956 6.01177 30015 ft 498 kts 45°
2026-05-04 09:44 53.24674 6.09674 30022 ft 499 kts 45°
2026-05-04 09:46 53.43533 6.43936 30017 ft 501 kts 45°
2026-05-04 09:46 53.48215 6.52516 30013 ft 501 kts 45°
2026-05-04 09:47 53.52923 6.61176 30004 ft 501 kts 45°
2026-05-04 09:49 53.71691 6.96003 30023 ft 502 kts 45°
2026-05-04 09:51 53.88077 7.26824 30043 ft 504 kts 45°
2026-05-04 09:51 53.92747 7.35679 30011 ft 504 kts 45°
2026-05-04 09:52 53.97395 7.44525 30045 ft 504 kts 45°
2026-05-04 09:52 54.02056 7.53428 30018 ft 504 kts 45°
2026-05-04 09:53 54.06711 7.62351 30026 ft 504 kts 45°
2026-05-04 09:53 54.11360 7.71296 30059 ft 504 kts 45°
2026-05-04 09:54 54.16011 7.80279 30024 ft 504 kts 45°
2026-05-04 09:54 54.20645 7.89261 30013 ft 504 kts 45°
2026-05-04 09:55 54.25270 7.98260 30058 ft 502 kts 45°
2026-05-04 09:55 54.29097 8.05731 30008 ft 502 kts 45°
2026-05-04 09:56 54.33693 8.14733 30007 ft 502 kts 45°
2026-05-04 09:56 54.39011 8.25192 30034 ft 500 kts 46°
2026-05-04 09:57 54.42834 8.32737 30013 ft 499 kts 46°
2026-05-04 09:57 54.47344 8.41668 30004 ft 498 kts 46°
2026-05-04 09:58 54.51878 8.50681 30035 ft 496 kts 46°
2026-05-04 09:58 54.56390 8.59683 30010 ft 495 kts 46°
2026-05-04 10:00 54.74225 8.95597 30011 ft 490 kts 46°
2026-05-04 10:04 55.05275 9.57745 29974 ft 484 kts 46°
2026-05-04 10:04 55.09586 9.66787 29898 ft 488 kts 54°
2026-05-04 10:05 55.12438 9.77356 29944 ft 472 kts 73°
2026-05-04 10:05 55.13363 9.82768 29950 ft 457 kts 73°
2026-05-04 10:05 55.14261 9.88086 30032 ft 458 kts 73°
2026-05-04 10:05 55.15176 9.93448 29894 ft 460 kts 73°
2026-05-04 10:06 55.16104 9.98808 29429 ft 461 kts 73°
2026-05-04 10:06 55.17040 10.04145 29017 ft 456 kts 72°
2026-05-04 10:06 55.17967 10.09403 28611 ft 450 kts 72°
2026-05-04 10:08 55.23328 10.40004 26007 ft 425 kts 73°
2026-05-04 10:08 55.24203 10.45054 25318 ft 429 kts 73°
2026-05-04 10:08 55.25044 10.49924 25139 ft 419 kts 73°
2026-05-04 10:08 55.25896 10.54865 24500 ft 421 kts 73°
2026-05-04 10:09 55.26727 10.59694 24191 ft 410 kts 74°
2026-05-04 10:09 55.27548 10.64481 23791 ft 403 kts 74°
2026-05-04 10:09 55.28347 10.69149 23206 ft 401 kts 74°
2026-05-04 10:09 55.29136 10.73751 23046 ft 385 kts 74°
2026-05-04 10:10 55.29910 10.78279 22363 ft 386 kts 74°
2026-05-04 10:10 55.30662 10.82685 22273 ft 374 kts 74°
2026-05-04 10:10 55.31418 10.87125 21960 ft 386 kts 74°
2026-05-04 10:10 55.32188 10.91667 21563 ft 398 kts 74°
2026-05-04 10:11 55.32975 10.96317 21082 ft 396 kts 74°
2026-05-04 10:11 55.33750 11.00934 20700 ft 393 kts 74°
2026-05-04 10:11 55.34515 11.05531 20246 ft 391 kts 74°
2026-05-04 10:11 55.35273 11.10101 19823 ft 388 kts 74°
2026-05-04 10:12 55.36023 11.14636 19409 ft 386 kts 74°
2026-05-04 10:12 55.36767 11.19143 18985 ft 383 kts 74°
2026-05-04 10:12 55.37508 11.23643 18469 ft 383 kts 74°
2026-05-04 10:12 55.38248 11.28149 17920 ft 382 kts 74°
2026-05-04 10:13 55.38982 11.32624 17397 ft 378 kts 74°
2026-05-04 10:13 55.39700 11.37016 16936 ft 370 kts 74°
2026-05-04 10:13 55.40404 11.41334 16453 ft 364 kts 74°
2026-05-04 10:13 55.41095 11.45575 15987 ft 358 kts 74°
2026-05-04 10:14 55.41775 11.49762 15570 ft 351 kts 74°
2026-05-04 10:14 55.42436 11.53842 15302 ft 341 kts 74°
2026-05-04 10:16 55.52091 11.75900 13294 ft 333 kts 38°
2026-05-04 10:16 55.53822 11.78612 13026 ft 331 kts 38°
2026-05-04 10:16 55.55534 11.81300 12763 ft 329 kts 38°
2026-05-04 10:16 55.57236 11.83976 12502 ft 327 kts 38°
2026-05-04 10:17 55.58926 11.86636 12236 ft 324 kts 38°
2026-05-04 10:17 55.60606 11.89283 11988 ft 321 kts 38°
2026-05-04 10:19 55.72206 12.07773 11887 ft 323 kts 47°
2026-05-04 10:19 55.73224 12.11299 11896 ft 323 kts 78°
2026-05-04 10:19 55.73386 12.15210 11907 ft 326 kts 97°
2026-05-04 10:19 55.73085 12.19201 12004 ft 325 kts 100°
2026-05-04 10:20 55.72797 12.23221 11920 ft 331 kts 99°
2026-05-04 10:20 55.72538 12.27248 11920 ft 325 kts 98°
2026-05-04 10:20 55.72292 12.31214 11902 ft 323 kts 98°
2026-05-04 10:20 55.72046 12.35169 11908 ft 323 kts 98°
2026-05-04 10:21 55.71800 12.39122 11904 ft 321 kts 98°
2026-05-04 10:21 55.71554 12.43029 11719 ft 318 kts 98°
2026-05-04 10:21 55.71307 12.46934 11338 ft 318 kts 98°
2026-05-04 10:21 55.71215 12.50869 10843 ft 323 kts 81°
2026-05-04 10:22 55.73025 12.57958 10076 ft 311 kts 61°
2026-05-04 10:22 55.74015 12.61392 9505 ft 313 kts 62°
2026-05-04 10:22 55.75085 12.64726 8953 ft 309 kts 48°
2026-05-04 10:23 55.76654 12.67261 8516 ft 299 kts 34°
2026-05-04 10:23 55.78242 12.69573 8114 ft 295 kts 37°
2026-05-04 10:25 55.88939 12.82128 5835 ft 235 kts 349°
2026-05-04 10:25 55.90546 12.81873 5538 ft 231 kts 350°
2026-05-04 10:25 55.92151 12.81616 5088 ft 231 kts 347°
2026-05-04 10:25 55.93645 12.80710 4580 ft 225 kts 322°
2026-05-04 10:26 55.94707 12.78779 4213 ft 215 kts 297°
2026-05-04 10:26 55.95143 12.76287 3752 ft 212 kts 272°
2026-05-04 10:26 55.94872 12.73717 3335 ft 212 kts 246°
2026-05-04 10:26 55.93954 12.71670 2930 ft 215 kts 220°
2026-05-04 10:27 55.92577 12.70568 2491 ft 223 kts 193°
2026-05-04 10:27 55.91042 12.70502 2167 ft 221 kts 176°
2026-05-04 10:27 55.89598 12.71460 2023 ft 218 kts 148°
2026-05-04 10:27 55.88383 12.73145 1950 ft 226 kts 144°
2026-05-04 10:28 55.87121 12.74897 1994 ft 234 kts 145°
2026-05-04 10:28 55.85827 12.76686 2008 ft 235 kts 145°
2026-05-04 10:28 55.84462 12.78192 1965 ft 225 kts 162°
2026-05-04 10:28 55.83034 12.79128 1981 ft 214 kts 162°
2026-05-04 10:29 55.81688 12.80039 1995 ft 200 kts 165°
2026-05-04 10:29 55.80408 12.80798 1986 ft 195 kts 166°
2026-05-04 10:29 55.79132 12.81536 1978 ft 190 kts 166°
2026-05-04 10:29 55.77883 12.82253 1984 ft 188 kts 166°
2026-05-04 10:30 55.76633 12.82965 1990 ft 189 kts 166°
2026-05-04 10:30 55.75385 12.83687 1985 ft 188 kts 167°
2026-05-04 10:30 55.74119 12.83950 1953 ft 178 kts 201°
2026-05-04 10:30 55.73220 12.82769 2025 ft 157 kts 234°
2026-05-04 10:31 55.72422 12.81460 1983 ft 156 kts 213°
2026-05-04 10:31 55.71464 12.80558 1997 ft 157 kts 219°
2026-05-04 10:32 55.66571 12.73004 1097 ft 150 kts 224°
2026-05-04 10:33 55.65777 12.71773 880 ft 152 kts 225°
2026-05-04 10:33 55.64983 12.70541 675 ft 152 kts 225°
2026-05-04 10:33 55.64187 12.69306 459 ft 153 kts 224°
2026-05-04 10:33 55.63391 12.68076 297 ft 152 kts 224°
2026-05-04 10:34 55.62591 12.66834 95 ft 153 kts 221°
2026-05-04 10:34 55.61809 12.65611 27 ft 144 kts 221°
2026-05-04 10:34 55.61206 12.64688 24 ft 83 kts 221°
2026-05-04 10:34 55.60935 12.64277 25 ft 20 kts 220°
2026-05-04 10:35 55.60893 12.64214 26 ft 12 kts 220°
2026-05-04 10:35 55.60796 12.64070 28 ft 24 kts 220°
2026-05-04 10:35 55.60695 12.63806 24 ft 18 kts 280°
2026-05-04 10:35 55.60768 12.63636 27 ft 17 kts 313°
2026-05-04 10:36 55.60870 12.63635 24 ft 16 kts 34°
2026-05-04 10:36 55.60964 12.63743 23 ft 16 kts 33°
2026-05-04 10:36 55.61055 12.63847 24 ft 15 kts 33°
2026-05-04 10:36 55.61142 12.63947 24 ft 15 kts 33°
2026-05-04 10:37 55.61227 12.64044 25 ft 15 kts 33°
2026-05-04 10:37 55.61316 12.64150 23 ft 16 kts 34°
2026-05-04 10:37 55.61412 12.64266 24 ft 17 kts 34°
2026-05-04 10:37 55.61517 12.64383 23 ft 18 kts 31°
2026-05-04 10:39 55.62203 12.64758 23 ft 15 kts 33°
2026-05-04 10:39 55.62232 12.64790 23 ft 3 kts 26°
2026-05-04 10:39 55.62253 12.64794 23 ft 3 kts 358°
2026-05-04 10:40 55.62279 12.64788 23 ft 6 kts 352°
2026-05-04 10:40 55.62338 12.64782 23 ft 11 kts 359°
2026-05-04 10:40 55.62410 12.64716 23 ft 13 kts 304°
2026-05-04 10:40 55.62489 12.64658 23 ft 12 kts 350°
2026-05-04 10:41 55.62550 12.64648 23 ft 0 kts 359°
2026-05-04 10:41 55.62558 12.64648 23 ft 2 kts 359°
2026-05-04 10:42 55.62580 12.64647 26 ft 4 kts 359°
2026-05-04 10:42 55.62616 12.64646 23 ft 6 kts
2026-05-04 10:42 55.62659 12.64671 23 ft 7 kts 24°
2026-05-04 10:42 55.62687 12.64666 23 ft 5 kts 319°
2026-05-04 10:43 55.62691 12.64658 25 ft 0 kts 304°
2026-05-04 10:44 55.62699 12.64593 23 ft 0 kts 283°
2026-05-04 10:45 55.62699 12.64590 23 ft 0 kts 283°